Time,TemperatureF,DewpointF,PressureIn,WindDirection,WindDirectionDegrees,WindSpeedMPH,WindSpeedGustMPH,Humidity,HourlyPrecipIn,Conditions,Clouds,dailyrainin,SoftwareType,DateUTC
2013-07-10 11:22:00,74.0,61.0,-100.00,North,0,12.0,17.0,62,0.00,,,0.00,,2013-07-10 16:22:00,
2013-07-10 11:44:00,75.0,59.0,-100.00,North,350,11.0,16.0,59,0.00,,,0.00,,2013-07-10 16:44:00,
2013-07-10 12:02:00,75.0,57.0,-100.00,North,0,14.0,20.0,52,0.00,,,0.00,,2013-07-10 17:02:00,
2013-07-10 12:11:00,75.0,57.0,-100.00,North,0,12.0,17.0,53,0.00,,,0.00,,2013-07-10 17:11:00,
2013-07-10 13:22:00,77.0,57.0,-100.00,North,350,9.0,13.0,51,0.00,,,0.00,,2013-07-10 18:22:00,
2013-07-10 13:32:00,78.0,57.0,-100.00,North,0,12.0,17.0,50,0.00,,,0.00,,2013-07-10 18:32:00,
2013-07-10 13:52:00,77.0,57.0,-100.00,NNW,345,12.0,17.0,49,0.00,,,0.00,,2013-07-10 18:52:00,
2013-07-10 14:01:00,78.0,57.0,-100.00,NNW,330,9.0,18.0,49,0.00,,,0.00,,2013-07-10 19:01:00,
2013-07-10 14:32:00,78.0,57.0,-100.00,NNW,330,12.0,16.0,48,0.00,,,0.00,,2013-07-10 19:32:00,
2013-07-10 15:11:00,79.0,57.0,-100.00,NW,325,9.0,17.0,48,0.00,,,0.00,,2013-07-10 20:11:00,
2013-07-10 15:52:00,80.0,57.0,-100.00,North,350,9.0,12.0,46,0.00,,,0.00,,2013-07-10 20:52:00,
2013-07-10 16:11:00,80.0,59.0,-100.00,West,280,7.0,12.0,47,0.00,,,0.00,,2013-07-10 21:11:00,
2013-07-10 16:22:00,80.0,59.0,-100.00,WNW,300,6.0,12.0,47,0.00,,,0.00,,2013-07-10 21:22:00,
2013-07-10 17:01:00,80.0,59.0,-100.00,NW,310,7.0,11.0,47,0.00,,,0.00,,2013-07-10 22:01:00,
2013-07-10 17:21:00,80.0,59.0,-100.00,NNW,330,7.0,12.0,47,0.00,,,0.00,,2013-07-10 22:21:00,
2013-07-10 17:53:00,80.0,57.0,-100.00,NW,320,4.0,11.0,47,0.00,,,0.00,,2013-07-10 22:53:00,
2013-07-10 18:01:00,80.0,59.0,-100.00,NW,310,6.0,8.0,48,0.00,,,0.00,,2013-07-10 23:01:00,
2013-07-10 18:22:00,79.0,59.0,-100.00,NW,320,5.0,9.0,48,0.00,,,0.00,,2013-07-10 23:22:00,
2013-07-10 18:52:00,79.0,59.0,-100.00,NW,325,6.0,7.0,48,0.00,,,0.00,,2013-07-10 23:52:00,
2013-07-10 19:01:00,78.0,59.0,-100.00,NW,305,7.0,9.0,51,0.00,,,0.00,,2013-07-11 00:01:00,
2013-07-10 19:11:00,77.0,59.0,-100.00,NW,310,6.0,9.0,53,0.00,,,0.00,,2013-07-11 00:11:00,
2013-07-10 19:22:00,76.0,61.0,-100.00,NW,315,4.0,6.0,57,0.00,,,0.00,,2013-07-11 00:22:00,
2013-07-10 19:52:00,77.0,61.0,-100.00,NW,320,4.0,5.0,58,0.00,,,0.00,,2013-07-11 00:52:00,
2013-07-10 20:01:00,77.0,61.0,-100.00,NW,315,3.0,4.0,58,0.00,,,0.00,,2013-07-11 01:01:00,
2013-07-10 20:22:00,75.0,63.0,-100.00,WNW,295,4.0,4.0,64,0.00,,,0.00,,2013-07-11 01:22:00,
2013-07-10 20:52:00,74.0,64.0,-100.00,WNW,285,3.0,3.0,72,0.00,,,0.00,,2013-07-11 01:52:00,
2013-07-10 21:02:00,73.0,64.0,-100.00,WNW,290,3.0,3.0,74,0.00,,,0.00,,2013-07-11 02:02:00,
2013-07-10 21:22:00,71.0,66.0,-100.00,WNW,290,2.0,3.0,83,0.00,,,0.00,,2013-07-11 02:22:00,
2013-07-10 22:02:00,68.0,66.0,-100.00,WNW,290,3.0,4.0,91,0.00,,,0.00,,2013-07-11 03:02:00,
2013-07-10 22:11:00,68.0,66.0,-100.00,WNW,285,3.0,3.0,92,0.00,,,0.00,,2013-07-11 03:11:00,
2013-07-10 23:42:00,63.0,63.0,-100.00,West,265,1.0,4.0,99,0.00,,,0.00,,2013-07-11 04:42:00,
2013-07-10 23:53:00,63.0,63.0,-100.00,West,265,1.0,2.0,99,0.00,,,0.00,,2013-07-11 04:53:00,